Location: Kott?ru
(16.6209°N, 80.6208°E)
Time: 13:58:10
(UTC+00:00)

Okean 2 - Pass Details

Date: 18 September 2020
Orbit: 559 x 577 km, 82.5° (Epoch: 29 October)

Event Time Altitude Azimuth Distance (km) Brightness Sun altitude
Rises 13:48:08 0° 354° (N) 2,777 7.1 -17.9°
Reaches altitude 10° 13:50:19 10° 354° (N) 1,876 6.2 -18.4°
Maximum altitude 13:54:27 83° 267° (W) 579 3.4 -19.4°
Drops below altitude 10° 13:58:34 10° 178° (S) 1,862 5.9 -20.3°
Sets 14:00:44 0° 178° (S) 2,755 6.8 -20.9°
